Change the Weather History Date:

Thursday, May 1, 2014

  Actual Average Record
Temperature  
Mean Temperature 74 °F -  
Max Temperature 83 °F - - ()
Min Temperature 64 °F - - ()
Cooling Degree Days 8    
Growing Degree Days 24 (Base 50)    
Moisture  
Dew Point 67 °F    
Average Humidity 82    
Maximum Humidity 100    
Minimum Humidity 43    
Precipitation  
Precipitation 0.00 in - - ()
Sea Level Pressure  
Sea Level Pressure 29.91 in    
Wind  
Wind Speed 3 mph ()    
Max Wind Speed 9 mph    
Max Gust Speed -    
Visibility 6.6 miles    
Events      
T = Trace of Precipitation, MM = Missing Value Source: Averaged Metar Reports

Daily Weather History Graph

Daily Weather History Graph

Search for Another Location

Airport or City:

Trip Planner

Search our weather history database for the weather conditions in past years. The results will help you decide how hot, cold, wet, or windy it might be!

Date:

Astronomy

May. 01, 2014 Rise Set
Actual Time 6:22 AM AEST 5:43 PM AEST
Civil Twilight 5:59 AM AEST 6:06 PM AEST
Nautical Twilight 5:33 AM AEST 6:32 PM AEST
Astronomical Twilight 5:07 AM AEST 6:58 PM AEST
Moon 7:54 AM AEST (5/1) 7:21 PM AEST (5/1)
Length of Visible Light 12h 06m
Length of Day
11h 21m
Waxing Crescent, 4% of the Moon is Illuminated
May 1
Waxing Crescent
May 7
First Quarter
May 15
Full
May 21
Last Quarter
May 29
New

Hourly Weather History & Observations

Time (AEST) Temp. Heat Index Dew Point Humidity Pressure Visibility Wind Dir Wind Speed Gust Speed Precip Events Conditions
12:00 AM 69 °F - 68 °F 96% 29.95 in - SSW 4.6 mph - -  
12:00 AM 69.8 °F - 68.0 °F 94% 29.95 in 6.2 mi SSW 4.6 mph - N/A   Scattered Clouds
1:00 AM 68.0 °F - 68.0 °F 100% 29.92 in 6.2 mi SSW 4.6 mph - N/A   Unknown
2:00 AM 68.0 °F - 68.0 °F 100% 29.92 in 6.2 mi Calm Calm - N/A   Scattered Clouds
3:00 AM 67 °F - 67 °F 99% 29.92 in - Calm Calm - -  
3:00 AM 68.0 °F - 66.2 °F 94% 29.92 in 6.2 mi Calm Calm - N/A   Unknown
4:00 AM 66.2 °F - 66.2 °F 100% 29.92 in 6.2 mi SSW 1.2 mph - N/A   Unknown
5:00 AM 66.2 °F - 66.2 °F 100% 29.92 in 6.2 mi SW 3.5 mph - N/A   Unknown
6:00 AM 64 °F - 64 °F 99% 29.94 in 1 mi Calm Calm - -  
9:00 AM 75 °F - 69 °F 75% 29.97 in - SE 1.2 mph - -  
12:00 PM 83 °F - 70 °F 57% 29.92 in - South 4.6 mph - -  
12:00 PM 82.4 °F 86.3 °F 69.8 °F 66% 29.92 in 6.2 mi SSE 5.8 mph - N/A   Scattered Clouds
1:00 PM 82.4 °F 83.9 °F 64.4 °F 54% 29.89 in 6.2 mi East 8.1 mph - N/A   Unknown
2:00 PM 82.4 °F 84.6 °F 66.2 °F 58% 29.86 in 6.2 mi East 8.1 mph - N/A   Unknown
3:00 PM 83 °F - 64 °F 43% 29.87 in 19 mi East 8.1 mph - -   Partly Cloudy
3:00 PM 82.4 °F 83.9 °F 64.4 °F 54% 29.86 in 6.2 mi East 8.1 mph - N/A   Unknown
4:00 PM 82.4 °F 84.6 °F 66.2 °F 58% 29.86 in 6.2 mi ESE 9.2 mph - N/A   Unknown
5:00 PM 78.8 °F - 68.0 °F 69% 29.86 in 6.2 mi ESE 8.1 mph - N/A   Scattered Clouds
6:00 PM 75 °F - 70 °F 79% 29.89 in - SE 5.8 mph - -  
6:00 PM 75.2 °F - 69.8 °F 83% 29.89 in 6.2 mi SE 5.8 mph - N/A   Scattered Clouds
7:00 PM 73.4 °F - 69.8 °F 88% 29.89 in 6.2 mi East 2.3 mph - N/A   Unknown
8:00 PM 71.6 °F - 69.8 °F 94% 29.92 in 6.2 mi Calm Calm - N/A   Unknown
9:00 PM 71 °F - 68 °F 87% 29.93 in - Calm Calm - -  
9:00 PM 69.8 °F - 68.0 °F 94% 29.92 in 6.2 mi SW 1.2 mph - N/A   Unknown
10:00 PM 69.8 °F - 68.0 °F 94% 29.92 in 6.2 mi WSW 4.6 mph - N/A   Unknown
11:00 PM 68.0 °F - 66.2 °F 94% 29.92 in 6.2 mi Calm Calm - N/A   Unknown